EW6851 Weather Reports


Display with metric or nautical units.
time (UTC)temp
F
wind
direction
speed
MPH
gust
MPH
rain 1hr
in
rain 24hr
in
rain mn
in
humidity
%
barometer
mb
20260901003644 80 163 0.0 0.0 0.00 0.00 0.00 78 1016.1
20260901003142 80 171 0.0 3.0 0.00 0.00 0.00 78 1016.1
20260901002641 80 153 2.0 4.0 0.00 0.00 0.00 78 1016.1
20260901002147 80 168 2.0 5.0 0.00 0.00 0.00 78 1016.1
20260901001647 80 152 3.0 5.0 0.00 0.00 0.00 78 1016.1
20260901001141 80 171 2.0 6.0 0.00 0.00 0.00 78 1016.0
20260901000641 80 153 0.0 6.0 0.00 0.00 0.00 78 1015.9
20260901000141 80 140 6.0 6.0 0.00 0.00 0.00 78 1015.9
20260831235641 80 158 0.0 6.0 0.00 0.00 0.00 78 1015.9
20260831235144 80 121 0.0 5.0 0.00 0.00 0.00 78 1015.8
20260831234650 81 107 2.0 4.0 0.00 0.00 0.00 77 1015.8
20260831234141 81 115 0.0 4.0 0.00 0.00 0.00 77 1015.8
20260831233647 81 173 1.0 3.0 0.00 0.00 0.00 78 1015.8
20260831233141 81 164 0.0 5.0 0.00 0.00 0.00 78 1015.8
20260831232648 81 206 2.0 6.0 0.00 0.00 0.00 77 1015.7
20260831232141 81 173 2.0 5.0 0.00 0.00 0.00 77 1015.8
20260831231641 81 135 3.0 4.0 0.00 0.00 0.00 77 1015.8
20260831231141 81 127 2.0 4.0 0.00 0.00 0.00 76 1015.9
20260831230641 82 173 0.0 4.0 0.00 0.00 0.00 76 1015.8
20260831230141 82 176 1.0 4.0 0.00 0.00 0.00 75 1015.8
20260831225650 82 126 0.0 3.0 0.00 0.00 0.00 75 1015.8
20260831225141 82 147 0.0 3.0 0.00 0.00 0.00 75 1015.8
20260831224641 82 157 0.0 4.0 0.00 0.00 0.00 75 1015.9
20260831224144 82 140 0.0 4.0 0.00 0.00 0.00 75 1015.9
20260831223644 82 159 0.0 3.0 0.00 0.00 0.00 75 1015.9
20260831223141 82 151 1.0 3.0 0.00 0.00 0.00 75 1015.9
20260831222644 83 144 3.0 3.0 0.00 0.00 0.00 75 1015.9
20260831222141 83 157 0.0 2.0 0.00 0.00 0.00 74 1016.0
20260831221647 83 175 1.0 2.0 0.00 0.00 0.00 74 1015.9
20260831221141 83 234 2.0 3.0 0.00 0.00 0.00 73 1016.0
20260831220641 83 5 1.0 4.0 0.00 0.00 0.00 73 1016.0
20260831220141 83 355 2.0 3.0 0.00 0.00 0.00 73 1016.0
20260831215645 83 307 2.0 3.0 0.00 0.00 0.00 73 1016.1
20260831215141 83 65 0.0 1.0 0.00 0.00 0.00 75 1016.1
20260831214641 83 65 0.0 1.0 0.00 0.00 0.00 75 1016.0
20260831214141 83 65 1.0 2.0 0.00 0.00 0.00 74 1016.0
20260831213644 83 65 0.0 2.0 0.00 0.00 0.00 75 1016.0
20260831213150 83 65 1.0 3.0 0.00 0.00 0.00 75 1016.0
20260831212644 83 11 0.0 0.0 0.00 0.00 0.00 75 1016.0
20260831212141 83 10 0.0 4.0 0.00 0.00 0.00 75 1016.0
20260831211641 83 10 3.0 3.0 0.00 0.00 0.00 74 1015.9
20260831211141 83 355 2.0 3.0 0.00 0.00 0.00 74 1015.9
20260831210648 83 19 1.0 3.0 0.00 0.00 0.00 74 1015.9
20260831210141 84 19 0.0 2.0 0.00 0.00 0.00 74 1015.8
20260831205647 84 16 1.0 3.0 0.00 0.00 0.00 74 1015.9
20260831205141 84 17 2.0 3.0 0.00 0.00 0.00 74 1015.8
20260831204641 84 313 0.0 2.0 0.00 0.00 0.00 74 1015.8
20260831204147 84 313 2.0 4.0 0.00 0.00 0.00 73 1015.8
20260831203648 84 5 3.0 4.0 0.00 0.00 0.00 73 1015.8
20260831203141 84 240 1.0 3.0 0.00 0.00 0.00 73 1015.8
20260831202641 84 321 3.0 3.0 0.00 0.00 0.00 73 1015.7
20260831202141 83 301 2.0 3.0 0.00 0.00 0.00 73 1015.7
20260831201641 83 294 1.0 3.0 0.00 0.00 0.00 74 1015.7
20260831201147 83 20 1.0 2.0 0.00 0.00 0.00 75 1015.7
20260831200641 83 20 1.0 2.0 0.00 0.00 0.00 75 1015.6
20260831200141 83 20 0.0 2.0 0.00 0.00 0.00 75 1015.7
20260831195650 83 20 2.0 4.0 0.00 0.00 0.00 75 1015.7
20260831195144 83 348 3.0 4.0 0.00 0.00 0.00 75 1015.7
20260831194647 83 11 3.0 4.0 0.00 0.00 0.00 75 1015.6
20260831194141 83 350 4.0 4.0 0.00 0.00 0.00 75 1015.6
20260831193641 83 347 2.0 4.0 0.00 0.00 0.00 75 1015.6
20260831193141 83 26 3.0 4.0 0.00 0.00 0.00 75 1015.5
20260831192641 83 27 1.0 4.0 0.00 0.00 0.00 75 1015.5
20260831192144 84 34 3.0 5.0 0.00 0.00 0.00 74 1015.5
20260831191641 84 28 4.0 5.0 0.00 0.00 0.00 74 1015.4
20260831191147 84 32 1.0 4.0 0.00 0.00 0.00 74 1015.4
20260831190641 84 339 1.0 4.0 0.00 0.00 0.00 74 1015.4
20260831190141 84 327 3.0 5.0 0.00 0.00 0.00 74 1015.4
20260831185641 84 328 3.0 5.0 0.00 0.00 0.00 74 1015.4
20260831185141 84 355 3.0 4.0 0.00 0.00 0.00 74 1015.5
20260831184641 84 350 3.0 4.0 0.00 0.00 0.00 73 1015.4
20260831184145 84 311 4.0 6.0 0.00 0.00 0.00 73 1015.3
20260831183644 84 278 1.0 5.0 0.00 0.00 0.00 73 1015.3
20260831183147 84 346 1.0 4.0 0.00 0.00 0.00 73 1015.3
20260831182641 84 315 3.0 5.0 0.00 0.00 0.00 73 1015.3
20260831182141 84 286 1.0 5.0 0.00 0.00 0.00 73 1015.2
20260831181641 84 333 3.0 6.0 0.00 0.00 0.00 73 1015.1
20260831181141 84 338 3.0 4.0 0.00 0.00 0.00 73 1015.0
20260831180647 85 321 4.0 6.0 0.00 0.00 0.00 73 1015.0
20260831180141 85 305 3.0 6.0 0.00 0.00 0.00 73 1015.1
20260831175645 85 342 3.0 7.0 0.00 0.00 0.00 73 1015.1
20260831175144 85 328 4.0 5.0 0.00 0.00 0.00 73 1015.0
20260831174641 85 294 2.0 5.0 0.00 0.00 0.00 73 1015.1
20260831174147 85 338 5.0 5.0 0.00 0.00 0.00 73 1015.1
20260831173641 85 311 3.0 7.0 0.00 0.00 0.00 73 1015.1
20260831173141 85 331 4.0 7.0 0.00 0.00 0.00 72 1015.1
20260831172641 85 306 5.0 8.0 0.00 0.00 0.00 72 1015.1
20260831172147 85 299 7.0 7.0 0.00 0.00 0.00 72 1015.2
20260831171644 85 343 3.0 8.0 0.00 0.00 0.00 72 1015.3
20260831171141 85 319 4.0 8.0 0.00 0.00 0.00 72 1015.3
20260831170644 85 296 4.0 7.0 0.00 0.00 0.00 72 1015.2
20260831170147 86 300 4.0 8.0 0.00 0.00 0.00 71 1015.2
20260831165641 86 339 3.0 8.0 0.00 0.00 0.00 71 1015.2
20260831165141 86 314 3.0 7.0 0.00 0.00 0.00 70 1015.2
20260831164644 86 355 1.0 5.0 0.00 0.00 0.00 69 1015.2
20260831164144 86 345 5.0 7.0 0.00 0.00 0.00 69 1015.2
20260831163645 87 309 2.0 6.0 0.00 0.00 0.00 69 1015.3
20260831163147 87 340 6.0 7.0 0.00 0.00 0.00 69 1015.2
20260831162647 87 45 2.0 6.0 0.00 0.00 0.00 68 1015.2
20260831162141 87 322 2.0 9.0 0.00 0.00 0.00 68 1015.2
20260831161644 87 256 1.0 8.0 0.00 0.00 0.00 69 1015.2
20260831161141 87 305 2.0 8.0 0.00 0.00 0.00 67 1015.2
20260831160641 87 355 4.0 6.0 0.00 0.00 0.00 66 1015.1
20260831160145 88 0 4.0 9.0 0.00 0.00 0.00 65 1015.1
20260831155641 88 300 6.0 8.0 0.00 0.00 0.00 65 1015.1
20260831155144 88 43 4.0 8.0 0.00 0.00 0.00 65 1015.1
20260831154641 88 301 3.0 9.0 0.00 0.00 0.00 64 1015.1
20260831154144 88 309 5.0 8.0 0.00 0.00 0.00 65 1015.0
20260831153641 88 221 3.0 8.0 0.00 0.00 0.00 65 1015.1
20260831153144 88 294 6.0 10.0 0.00 0.00 0.00 65 1015.0
20260831152641 87 5 4.0 11.0 0.00 0.00 0.00 64 1015.0
20260831152141 88 46 6.0 11.0 0.00 0.00 0.00 63 1014.9
20260831151641 90 302 6.0 7.0 0.00 0.00 0.00 62 1014.9
20260831151142 89 281 1.0 9.0 0.00 0.00 0.00 61 1014.9
20260831150641 89 289 5.0 9.0 0.00 0.00 0.00 61 1015.0
20260831150147 89 192 1.0 6.0 0.00 0.00 0.00 61 1015.0
20260831145644 89 281 4.0 8.0 0.00 0.00 0.00 61 1015.0
20260831145141 89 282 7.0 8.0 0.00 0.00 0.00 62 1014.9
20260831144645 88 305 5.0 10.0 0.00 0.00 0.00 63 1014.9
20260831144141 88 15 4.0 8.0 0.00 0.00 0.00 62 1014.9
20260831143642 89 348 3.0 10.0 0.00 0.00 0.00 63 1014.9
20260831143145 89 5 4.0 11.0 0.00 0.00 0.00 62 1014.9
20260831142642 90 293 3.0 9.0 0.00 0.00 0.00 60 1014.9
20260831142145 89 294 3.0 9.0 0.00 0.00 0.00 59 1014.9
20260831141648 89 16 4.0 10.0 0.00 0.00 0.00 62 1014.9
20260831141142 89 268 9.0 11.0 0.00 0.00 0.00 62 1015.0
20260831140641 90 15 3.0 8.0 0.00 0.00 0.00 61 1015.0
20260831140145 90 317 2.0 11.0 0.00 0.00 0.00 60 1015.1
20260831135645 90 292 4.0 11.0 0.00 0.00 0.00 60 1015.1
20260831135141 90 310 5.0 7.0 0.00 0.00 0.00 60 1015.1
20260831134642 90 298 5.0 12.0 0.00 0.00 0.00 59 1015.1
20260831134145 90 287 5.0 12.0 0.00 0.00 0.00 58 1015.1
20260831133642 90 288 5.0 9.0 0.00 0.00 0.00 60 1015.1
20260831133148 90 295 4.0 10.0 0.00 0.00 0.00 61 1015.0
20260831132117 90 319 4.0 6.0 0.00 0.00 0.00 61 1015.1
20260831131611 90 53 1.0 10.0 0.00 0.00 0.00 60 1015.1
20260831131114 90 0 4.0 11.0 0.00 0.00 0.00 60 1015.2
20260831130611 90 67 3.0 13.0 0.00 0.00 0.00 57 1015.2
20260831130114 91 327 3.0 9.0 0.00 0.00 0.00 56 1015.2
20260831125620 91 272 5.0 9.0 0.00 0.00 0.00 56 1015.1
20260831125114 90 315 4.0 10.0 0.00 0.00 0.00 52 1015.1
20260831124611 91 355 4.0 9.0 0.00 0.00 0.00 51 1015.1
20260831124111 91 331 5.0 10.0 0.00 0.00 0.00 52 1015.1
20260831123611 91 355 3.0 12.0 0.00 0.00 0.00 52 1015.2
20260831123111 90 0 3.0 9.0 0.00 0.00 0.00 51 1015.1
20260831122611 90 313 4.0 10.0 0.00 0.00 0.00 48 1015.1
20260831122111 91 0 2.0 11.0 0.00 0.00 0.00 54 1015.2
20260831121614 90 299 1.0 9.0 0.00 0.00 0.00 52 1015.1
20260831121114 90 355 5.0 9.0 0.00 0.00 0.00 54 1015.1
20260831120611 90 333 2.0 10.0 0.00 0.00 0.00 55 1015.1
20260831120114 90 317 0.0 8.0 0.00 0.00 0.00 52 1015.1
20260831115614 90 310 7.0 12.0 0.00 0.00 0.00 54 1015.1
20260831115111 91 318 5.0 11.0 0.00 0.00 0.00 51 1015.2
20260831114620 91 322 7.0 12.0 0.00 0.00 0.00 53 1015.1
20260831114111 91 267 1.0 11.0 0.00 0.00 0.00 50 1015.1
20260831113611 91 338 6.0 10.0 0.00 0.00 0.00 50 1015.1
20260831113111 91 275 8.0 10.0 0.00 0.00 0.00 52 1015.0
20260831112612 91 342 6.0 9.0 0.00 0.00 0.00 51 1015.0
20260831112111 91 289 7.0 11.0 0.00 0.00 0.00 50 1015.0
20260831111611 91 298 9.0 10.0 0.00 0.00 0.00 50 1015.1
20260831111114 91 301 9.0 11.0 0.00 0.00 0.00 50 1015.1
20260831110611 91 305 5.0 9.0 0.00 0.00 0.00 50 1015.1
20260831110111 91 292 5.0 9.0 0.00 0.00 0.00 50 1015.1
20260831105614 91 325 3.0 10.0 0.00 0.00 0.00 50 1015.1
20260831105114 90 307 6.0 11.0 0.00 0.00 0.00 51 1015.2
20260831104617 90 343 5.0 10.0 0.00 0.00 0.00 51 1015.2
20260831104111 90 304 6.0 13.0 0.00 0.00 0.00 52 1015.1
20260831103611 91 332 4.0 9.0 0.00 0.00 0.00 50 1015.1
20260831103117 91 308 5.0 9.0 0.00 0.00 0.00 52 1015.1
20260831102617 91 314 6.0 10.0 0.00 0.00 0.00 52 1015.2
20260831102111 91 28 1.0 9.0 0.00 0.00 0.00 50 1015.2
20260831101614 91 336 7.0 8.0 0.00 0.00 0.00 51 1015.2
20260831101114 91 318 9.0 11.0 0.00 0.00 0.00 49 1015.2
20260831100611 91 347 2.0 8.0 0.00 0.00 0.00 47 1015.2
20260831100114 91 300 2.0 8.0 0.00 0.00 0.00 50 1015.2
20260831095614 91 332 3.0 10.0 0.00 0.00 0.00 51 1015.2
20260831095117 91 299 2.0 8.0 0.00 0.00 0.00 50 1015.1
20260831094611 91 22 1.0 9.0 0.00 0.00 0.00 49 1015.1
20260831094111 91 314 4.0 8.0 0.00 0.00 0.00 50 1015.0
20260831093614 91 305 5.0 10.0 0.00 0.00 0.00 45 1015.0
20260831093114 91 348 3.0 10.0 0.00 0.00 0.00 43 1015.0
20260831092620 91 288 4.0 8.0 0.00 0.00 0.00 44 1015.0
20260831092114 91 305 4.0 8.0 0.00 0.00 0.00 45 1015.0
20260831091614 91 318 5.0 7.0 0.00 0.00 0.00 45 1015.0
20260831091114 91 22 2.0 5.0 0.00 0.00 0.00 41 1015.1
20260831090614 91 338 2.0 6.0 0.00 0.00 0.00 41 1015.1
20260831090111 91 0 4.0 7.0 0.00 0.00 0.00 43 1015.0
20260831085614 91 299 1.0 6.0 0.00 0.00 0.00 43 1014.9
20260831085114 91 322 1.0 6.0 0.00 0.00 0.00 44 1015.0
20260831084611 91 314 4.0 6.0 0.00 0.00 0.00 45 1015.0
20260831084111 91 284 1.0 3.0 0.00 0.00 0.00 45 1015.0
20260831083614 90 281 2.0 6.0 0.00 0.00 0.00 45 1015.0
20260831083111 90 219 2.0 4.0 0.00 0.00 0.00 45 1015.0
20260831082614 90 325 0.0 3.0 0.00 0.00 0.00 47 1015.0
20260831082111 90 325 2.0 5.0 0.00 0.00 0.00 47 1015.1
20260831081611 90 89 0.0 4.0 0.00 0.00 0.00 49 1015.0
20260831081112 89 33 2.0 5.0 0.00 0.00 0.00 49 1015.1
20260831080614 90 32 3.0 5.0 0.00 0.00 0.00 49 1015.0
20260831080114 89 256 2.0 4.0 0.00 0.00 0.00 50 1015.1
20260831075611 89 101 2.0 3.0 0.00 0.00 0.00 49 1015.0
20260831075111 89 294 2.0 5.0 0.00 0.00 0.00 47 1014.9
20260831074611 89 339 4.0 4.0 0.00 0.00 0.00 48 1014.8
20260831074111 89 269 2.0 4.0 0.00 0.00 0.00 53 1014.9
20260831073611 88 256 0.0 7.0 0.00 0.00 0.00 56 1014.9
20260831073111 88 282 4.0 4.0 0.00 0.00 0.00 57 1014.8
20260831072611 88 200 0.0 4.0 0.00 0.00 0.00 58 1014.7
20260831072117 88 288 1.0 2.0 0.00 0.00 0.00 56 1014.8
20260831071614 87 288 0.0 5.0 0.00 0.00 0.00 57 1014.8
20260831071111 87 304 2.0 5.0 0.00 0.00 0.00 58 1014.8
20260831070614 87 307 1.0 3.0 0.00 0.00 0.00 60 1014.7
20260831070111 87 284 2.0 3.0 0.00 0.00 0.00 61 1014.7
20260831065614 86 304 2.0 4.0 0.00 0.00 0.00 62 1014.7
20260831065111 86 275 0.0 4.0 0.00 0.00 0.00 65 1014.6
20260831064614 86 248 2.0 4.0 0.00 0.00 0.00 66 1014.6
20260831064111 85 274 0.0 3.0 0.00 0.00 0.00 68 1014.6
20260831063611 85 274 1.0 3.0 0.00 0.00 0.00 71 1014.7
20260831063111 85 274 1.0 3.0 0.00 0.00 0.00 73 1014.7
20260831062611 84 274 0.0 4.0 0.00 0.00 0.00 74 1014.7
20260831062111 84 178 0.0 4.0 0.00 0.00 0.00 74 1014.7
20260831061614 84 171 4.0 5.0 0.00 0.00 0.00 74 1014.5
20260831061114 84 181 3.0 4.0 0.00 0.00 0.00 75 1014.5
20260831060611 83 128 2.0 4.0 0.00 0.00 0.00 76 1014.5
20260831060111 83 105 2.0 5.0 0.00 0.00 0.00 76 1014.6
20260831055617 83 167 3.0 5.0 0.00 0.00 0.00 76 1014.6
20260831055111 83 128 2.0 4.0 0.00 0.00 0.00 76 1014.5
20260831054612 83 164 0.0 4.0 0.00 0.00 0.00 77 1014.6
20260831054111 83 202 1.0 3.0 0.00 0.00 0.00 77 1014.5
20260831053614 82 202 4.0 4.0 0.00 0.00 0.00 78 1014.5
20260831053117 82 147 1.0 3.0 0.00 0.00 0.00 79 1014.6
20260831052614 81 158 1.0 5.0 0.00 0.00 0.00 79 1014.7
20260831052114 81 169 2.0 5.0 0.00 0.00 0.00 78 1014.7
20260831051611 82 184 2.0 8.0 0.00 0.00 0.00 78 1014.7
20260831051114 82 177 3.0 5.0 0.00 0.00 0.00 77 1014.7
20260831050611 82 168 0.0 1.0 0.00 0.00 0.00 78 1014.7
20260831050114 82 211 0.0 3.0 0.00 0.00 0.00 78 1014.7
20260831045611 82 179 2.0 4.0 0.00 0.00 0.00 78 1014.5
20260831045111 82 170 2.0 2.0 0.00 0.00 0.00 78 1014.6
20260831044611 82 170 1.0 3.0 0.00 0.00 0.00 78 1014.6
20260831044111 82 201 2.0 3.0 0.00 0.00 0.00 77 1014.6
20260831043614 82 184 1.0 3.0 0.00 0.00 0.00 77 1014.6
20260831043111 83 140 3.0 3.0 0.00 0.00 0.00 76 1014.7
20260831042611 83 289 0.0 2.0 0.00 0.00 0.00 76 1014.6
20260831042112 83 289 0.0 5.0 0.00 0.00 0.00 76 1014.5
20260831041614 83 242 3.0 5.0 0.00 0.00 0.00 76 1014.4
20260831041111 83 286 2.0 6.0 0.00 0.00 0.00 76 1014.4
20260831040611 83 293 2.0 5.0 0.00 0.00 0.00 76 1014.4
20260831040111 83 279 1.0 5.0 0.00 0.00 0.00 76 1014.5
20260831035614 83 311 1.0 5.0 0.00 0.00 0.00 76 1014.5
20260831035111 83 288 4.0 6.0 0.00 0.00 0.00 76 1014.5
20260831034611 83 306 3.0 7.0 0.00 0.00 0.00 76 1014.5
20260831034114 83 321 5.0 7.0 0.00 0.00 0.00 76 1014.5
20260831033614 83 286 6.0 10.0 0.00 0.00 0.00 76 1014.6
20260831033111 83 279 1.0 8.0 0.00 0.00 0.00 76 1014.7
20260831032614 83 315 1.0 8.0 0.00 0.00 0.00 75 1014.7
20260831032114 83 294 1.0 7.0 0.00 0.00 0.00 75 1014.7
20260831031611 83 293 1.0 8.0 0.00 0.00 0.00 75 1014.7
20260831031114 83 286 3.0 8.0 0.00 0.00 0.00 75 1014.8
20260831030615 83 256 5.0 11.0 0.00 0.00 0.00 75 1014.8
20260831030114 83 288 6.0 11.0 0.00 0.00 0.00 76 1014.9
20260831025611 84 269 5.0 7.0 0.00 0.00 0.00 76 1014.8
20260831025118 84 290 3.0 9.0 0.00 0.00 0.00 75 1014.9
20260831024614 83 333 2.0 10.0 0.00 0.00 0.00 75 1014.8
20260831024114 84 317 10.0 12.0 0.00 0.00 0.00 76 1014.9
20260831023614 83 281 4.0 12.0 0.00 0.00 0.00 76 1015.0
20260831023111 84 257 5.0 14.0 0.00 0.00 0.00 76 1015.0
20260831022611 83 293 2.0 10.0 0.00 0.00 0.00 76 1015.0
20260831022111 84 327 7.0 13.0 0.00 0.00 0.00 76 1015.0
20260831021620 84 311 5.0 12.0 0.00 0.00 0.00 76 1015.0
20260831021114 84 327 12.0 11.0 0.00 0.00 0.00 76 1015.1
20260831020612 84 282 4.0 12.0 0.00 0.00 0.00 76 1015.0
20260831020109 84 304 7.0 12.0 0.00 0.00 0.00 76 1015.0
20260831015609 84 271 6.0 12.0 0.00 0.00 0.00 77 1015.0
20260831015109 84 198 1.0 13.0 0.00 0.00 0.00 77 1015.0
20260831014609 84 319 5.0 12.0 0.00 0.00 0.00 78 1015.0
20260831014115 84 290 4.0 8.0 0.00 0.00 0.00 77 1015.0
20260831013609 84 249 3.0 8.0 0.00 0.00 0.00 77 1015.0
20260831013109 84 311 2.0 10.0 0.00 0.00 0.00 77 1015.0
20260831012615 84 293 6.0 12.0 0.00 0.00 0.00 77 1015.0
20260831012115 84 283 6.0 11.0 0.00 0.00 0.00 78 1015.1
20260831011609 84 284 4.0 9.0 0.00 0.00 0.00 78 1015.0
20260831011109 84 284 5.0 11.0 0.00 0.00 0.00 77 1015.0
20260831010609 84 282 11.0 11.0 0.00 0.00 0.00 77 1015.0
20260831010112 84 254 6.0 10.0 0.00 0.00 0.00 77 1015.0
20260831005615 84 284 4.0 11.0 0.00 0.00 0.00 76 1015.0
20260831005109 84 351 3.0 11.0 0.00 0.00 0.00 76 1014.9
20260831004609 84 277 6.0 12.0 0.00 0.00 0.00 76 1014.9
20260831004112 84 279 6.0 10.0 0.00 0.00 0.00 76 1015.0